This demonstration page uses our WeatherBlox Daily Observations layout. Learn more.

Left ArrowRight Arrow

39.08367, -84.50855

Hourly Observations for April 10, 2019

Temp ( °F °C ) Dew Point ( °F °C ) Humidity (%) Winds ( mph kmh ) Pressure ( in mb ) Visibility ( mi km ) Precip ( " mm )
12:53 am 00:53 Clear 47 8.3 41 5 80 80 Calm 29.87 1012 10 16.0934 0 0
1:53 am 01:53 Clear 45 7.2 40 4.4 83 83 Calm 29.88 1012 10 16.0934 0 0
2:53 am 02:53 Clear 43 6.1 40 4.4 89 89 Calm 29.88 1012 10 16.0934 0 0
3:53 am 03:53 Clear 43 6.1 40 4.4 89 89 Calm 29.88 1012 10 16.0934 0 0
4:53 am 04:53 Clear 42 5.6 40 4.4 92 92 Calm 29.88 1012 10 16.0934 0 0
5:53 am 05:53 Mostly Clear 42 5.6 39 3.9 89 89 Calm 29.89 1012 10 16.0934 0 0
6:53 am 06:53 Mostly Clear 41 5 39 3.9 93 93 Calm 29.9 1013 10 16.0934 0 0
7:53 am 07:53 Cloudy 44 6.7 42 5.6 93 93 Calm 29.91 1013 10 16.0934 0 0
8:53 am 08:53 Mostly Cloudy 46 7.8 43 6.1 89 89 Calm 29.93 1014 10 16.0934 0 0
9:53 am 09:53 Cloudy 50 10 43 6.1 77 77 Calm 29.93 1014 10 16.0934 0 0
10:53 am 10:53 Mostly Cloudy 56 13.3 44 6.7 65 65 Calm 29.95 1014 10 16.0934 0 0
11:53 am 11:53 Mostly Cloudy 60 15.6 42 5.6 52 52 S 3 6 29.93 1014 10 16.0934 0 0
12:53 pm 12:53 Mostly Cloudy 65 18.3 39 3.9 39 39 ENE 3 6 29.92 1013 10 16.0934 0 0
1:53 pm 13:53 Mostly Sunny 66 18.9 36 2.2 33 33 Calm 29.9 1013 10 16.0934 0 0
2:53 pm 14:53 Mostly Cloudy 65 18.3 38 3.3 37 37 W 8 13 29.91 1013 10 16.0934 0 0
3:53 pm 15:53 Mostly Cloudy 66 18.9 36 2.2 33 33 NE 6 9 29.88 1012 10 16.0934 0 0
4:53 pm 16:53 Partly Cloudy 68 20 37 2.8 32 32 ENE 7 11 29.85 1011 10 16.0934 0 0
5:53 pm 17:53 Sunny 68 20 38 3.3 33 33 VRB 6 9 29.85 1011 10 16.0934 0 0
6:53 pm 18:53 Sunny 66 18.9 40 4.4 39 39 NE 8 13 29.85 1011 10 16.0934 0 0
7:53 pm 19:53 Sunny 63 17.2 39 3.9 41 41 ENE 10 17 29.84 1010 10 16.0934 0 0
8:53 pm 20:53 Clear 60 15.6 39 3.9 46 46 ENE 9 15 29.85 1011 10 16.0934 0 0
9:53 pm 21:53 Clear 57 13.9 40 4.4 53 53 ENE 12 19 29.89 1012 10 16.0934 0 0
10:53 pm 22:53 Clear 55 12.8 39 3.9 55 55 ENE 8 13 29.87 1011 10 16.0934 0 0
11:53 pm 23:53 Clear 54 12.2 39 3.9 57 57 NE 10 17 29.88 1012 10 16.0934 0 0

Powered by AerisWeather